Погода в Устинове

Россия / Тверская область     57°04′56″N   37°19′11″E
темп.,
°C
ветер,
м/с
пор.,
м/с
влажн.,
%
обл.,
%
осадки,
мм/ч
давл.,
гПа
погр.,
м
7 марта, вс
вс700:00−9ююз4108825 0.0 1009294
03:00−8ююз6139163 0.1 1004810
06:00−6ююз71492100 1.4 998962
09:00−4юз81591100 3.0 9931195
12:00−1юз71390100 1.0 9921110
15:00−2зсз41357100 1.9 9911854
18:00−7зюз227467 0.0 99221
21:00−7ююв189283 1.5 993418
8 марта, пн
пн800:00−10зюз389162 0.0 993199
03:00−9зюз399567 0.1 993446
06:00−8з2796100 0.7 993354
09:00−10ссз4991100 0.9 996470
12:00−7сз4784100 0.1 1000697
15:00−7ссз4781100 0.2 1003884
18:00−10ссз3888100 0.1 1006526
21:00−11ссз4992100 0.2 1010515
9 марта, вт
вт900:00−14ссз389495 0.1 1011307
03:00−17ссз379788 0.1 1014216
06:00−20ссз269868 0.0 1016170
09:00−20с369257 0.0 1018293
12:00−16с358380 0.0 1019486
15:00−15с358069 0.0 1020624
18:00−18с259144 0.0 1021141
21:00−21с239623 0.0 102462
10 марта, ср
ср1000:00−23с22960 0.0 102629
03:00−24с11960 0.0 102720
06:00−25ссз11950 0.0 102720
09:00−21с12860 0.0 1028155
12:00−14с12690 0.0 1028397
15:00−12с22660 0.0 1028623
18:00−16св22870 0.0 102820
21:00−20св11890 0.0 102920
11 марта, чт
чт1100:00−21в11903 0.0 102920
03:00−21ююв119029 0.0 103020
06:00−21ююв118965 0.0 103020
09:00−17ююв128153 0.0 1030130
12:00−11ююв24700 0.0 1028389
15:00−8ююв36690 0.0 1027646
18:00−11ююв39810 0.0 1025292
21:00−13ююв412920 0.0 1025346